Location: ?ern� Novina
(50.6762°N, 14.8696°E)
Time: 17:23:13
(UTC+00:00)

ASTEX 1 - Pass Details

Date: 03 March 2021
Orbit: 720 x 743 km, 92.7° (Epoch: 12 April)

Event Time Altitude Azimuth Distance (km) Brightness Sun altitude
Rises 19:19:10 0° 3° (N) 3,153 6.9 -24.7°
Reaches altitude 10° 19:21:29 10° 0° (N) 2,225 6.1 -25.1°
Maximum altitude 19:26:20 64° 280° (W) 801 3.7 -25.8°
Enters shadow 19:30:13 16° 202° (SSW) 1,846 5.4 -26.4°
